Location: Bishopstone
(51.0167°N, 1.9000°W)
Time: 08:07:04
(UTC+00:00)

Daily predictions for brighter satellites

Satellite Brightness Start Highest point End
(mag) Time Altitude Azimuth Time Altitude Azimuth Time Altitude Azimuth
CSL-04 Rocket 4.3 18:42:03 10° S 18:47:30 64° WSW 18:53:03 10° NNW
Cosmos 1536 Rocket 3.6 18:44:20 10° N 18:48:40 62° ENE 18:52:57 10° SSE
Nadezhda 1 Rocket 4.5 18:43:44 10° SSE 18:49:09 35° E 18:54:36 10° NNE
Cosmos 1939 Rocket 2.7 18:47:15 10° SSE 18:51:06 74° ENE 18:54:58 10° N
Cosmos 2322 Rocket 4.1 18:46:49 10° NW 18:51:47 33° WSW 18:56:42 10° SSW
Cosmos 1025 Rocket 3.0 18:51:10 10° N 18:55:26 62° ENE 18:59:39 10° SSE
Cosmos 1707 3.9 18:52:29 10° NNE 18:55:46 25° ENE 18:59:02 10° SE
ASTEX 1 4.1 18:53:00 10° NNE 18:57:21 31° E 19:01:39 10° SSE
YAOGAN 1 3.8 18:53:36 10° S 18:57:46 47° W 19:01:59 10° NNW
USA 32 4.1 18:53:55 10° N 18:59:11 87° E 19:04:26 10° S
SL-16 R/B 3.8 18:56:45 10° NNW 19:00:50 20° NE 19:04:54 10° E
Cosmos 2333 4.3 18:55:16 10° NNW 19:00:58 88° ENE 19:06:41 10° SSE
Cosmos 389 Rocket 4.1 18:59:39 10° NNE 19:02:04 18° ENE 19:04:26 10° ESE
NOSS 0 Rocket 4.3 18:57:35 10° NNW 19:03:36 50° NE 19:09:37 10° SE
Cosmos 1378 3.2 19:01:01 10° NNW 19:04:49 82° WSW 19:08:34 10° S
Meteor 1-12 Rocket 4.4 19:02:55 10° S 19:08:27 51° E 19:13:56 10° NNE
CZ-2C R/B 4.3 19:04:21 10° ESE 19:08:35 25° ENE 19:12:59 10° N
COSMOS 2428 2.7 19:03:19 10° NNW 19:09:01 74° ENE 19:14:42 10° SE
COSMOS 2487 4.2 19:09:11 10° SW 19:12:27 36° WNW 19:15:44 10° N
Meteor 1-4 Rocket 4.1 19:09:58 10° NNE 19:12:34 18° ENE 19:14:27 13° ESE
ERBS 3.8 19:09:55 10° WNW 19:12:57 29° N 19:15:58 10° ENE
Cosmos 2322 4.1 19:07:24 10° NW 19:13:07 67° WSW 19:18:46 10° SSE
Cosmos 2219 Rocket 2.2 19:07:52 10° NNW 19:13:31 77° ENE 19:19:07 10° SE
COSMO-SKYMED 1 4.3 19:09:30 10° N 19:13:33 38° WNW 19:17:34 10° SW
CZ-2D R/B 4.2 19:12:26 10° S 19:16:09 50° W 19:19:52 10° NNW
Cosmos 2341 Rocket 4.4 19:11:01 10° N 19:16:57 42° ENE 19:22:49 10° SE
Cosmos 2151 Rocket 3.6 19:12:39 10° S 19:17:04 89° E 19:21:30 10° N
Cosmos 1743 4.0 19:14:12 10° SSW 19:17:54 45° WNW 19:21:39 10° N
Lacrosse 4 Rocket 4.2 19:16:13 10° WNW 19:18:43 16° WSW 19:21:11 10° SW
Cosmos 1975 3.4 19:16:17 10° SSW 19:20:13 61° WNW 19:24:13 10° N
Cosmos 2074 Rocket 4.2 19:15:10 10° NNW 19:21:27 77° W 19:27:39 10° S
Ariane Rocket 3.6 19:17:02 10° S 19:22:02 60° WSW 19:27:05 10° NNW
Cosmos 2360 Rocket 3.8 19:18:46 10° NW 19:23:53 36° WSW 19:28:59 10° S
Cosmos 1300 Rocket 3.7 19:20:45 10° SSW 19:25:03 75° W 19:29:23 10° N
FREGAT/IRIS 2.7 19:26:31 10° S 19:29:18 68° WSW 19:32:08 10° NNW
Cosmos 407 Rocket 3.9 19:26:25 10° NNW 19:31:24 46° ENE 19:35:14 16° SE
EO 1 Delta rocket 4.5 19:24:30 10° SSE 19:31:29 77° ENE 19:36:58 10° N
CZ-4C R/B 3.9 19:26:37 10° W 19:31:45 33° NNW 19:37:44 10° NE
Cosmos 1842 4.3 19:28:39 10° NNW 19:32:29 48° W 19:36:17 10° SSW
CZ-2C R/B 4.4 19:30:56 10° ENE 19:33:16 13° E 19:33:16 13° E
SL-08 RB Rocket 4.3 19:31:35 15° SE 19:35:08 40° ENE 19:39:30 10° N
NOSS 3-4 (A) 3.8 19:28:35 10° NW 19:35:29 83° NE 19:42:03 15° SE
NOSS 3-4 (C) 3.8 19:28:41 10° NW 19:35:35 82° NE 19:42:07 15° SE
Cosmos 2219 4.0 19:31:47 10° SSE 19:36:38 29° ESE 19:41:29 10° NE
SPOT 3 Rocket 3.5 19:34:12 10° SSE 19:39:21 82° ENE 19:44:32 10° NNW
Cosmos 2227 Rocket 3.4 19:38:55 18° ESE 19:39:42 18° E 19:43:28 10° ENE
Cosmos 1437 Rocket 4.2 19:37:13 10° NNE 19:40:07 20° ENE 19:40:57 19° E
Cosmos 614 Rocket 4.3 19:35:03 10° NNW 19:40:11 51° ENE 19:43:50 18° SE
Cosmos 1461 2.8 19:36:20 10° SSW 19:40:14 52° SE 19:44:06 10° NE
Cosmos 2154 Rocket 4.0 19:35:22 10° N 19:41:36 88° W 19:47:49 10° S
Meteor 2-9 Rocket 4.5 19:36:01 10° SSW 19:41:49 77° WNW 19:47:30 10° N
Cosmos 1455 Rocket 4.1 19:44:43 22° ESE 19:46:03 26° E 19:49:44 10° NNE
SL-8 R/B 4.1 19:42:07 10° SW 19:46:41 45° SSE 19:49:21 22° E
NOSS 3-3 (A) 4.0 19:40:39 10° SW 19:46:41 88° SE 19:53:33 10° NE
NOSS 3-3 (C) 4.0 19:40:45 10° SW 19:46:47 87° SE 19:53:39 10° NE
Cosmos 2297 Rocket 3.2 19:48:53 19° SE 19:50:49 23° ESE 19:55:11 10° NE
Cosmos 405 Rocket 3.3 19:54:00 30° ESE 19:54:23 31° E 19:57:41 10° NNE
Meteor 1-24 Rocket 4.4 19:49:52 10° N 19:55:05 36° ENE 19:57:50 24° ESE
ARGOS 3.1 19:49:52 10° SSE 19:55:09 78° ENE 20:00:34 10° NNW
USA 186 2.7 19:52:47 10° S 19:56:04 51° W 19:59:26 10° NNW
COSMOS 2455 4.3 19:52:04 10° NW 19:57:26 35° WSW 20:02:46 10° S
Resurs 01 Rocket 1.8 19:55:58 24° SE 19:58:24 53° ENE 20:02:45 10° N
Resurs 1-3 3.6 19:55:46 20° SSE 19:58:47 67° ENE 20:03:10 10° N
Spot 2 Rocket 4.1 19:57:18 25° ESE 19:59:32 38° ENE 20:04:10 10° N
SL-8 Rocket 4.0 19:53:58 10° N 20:00:08 60° ENE 20:04:44 18° SSE
USA 234 3.9 19:54:50 11° ENE 20:01:02 53° N 20:07:21 10° WNW
ERS-1 Rocket 4.4 20:00:24 19° ENE 20:01:42 21° ENE 20:05:23 10° N
Cosmos 2333 Rocket 3.0 19:56:49 10° NW 20:02:18 50° WSW 20:07:47 10° S
Cosmos 1140 Rocket 3.6 19:59:09 10° NNW 20:04:17 57° ENE 20:06:49 29° SE
Okean 1 Rocket 3.4 20:00:44 10° SSW 20:05:03 67° WNW 20:09:25 10° N
Meteor 2-5 Rocket 3.9 19:59:36 10° N 20:05:18 56° ENE 20:08:43 24° SE
Cosmos 1371 Rocket 4.3 20:03:59 10° S 20:09:00 45° ESE 20:14:07 10° NE
Cosmos 1544 4.1 20:06:46 10° SSW 20:10:14 47° WNW 20:13:45 10° N
H-2A R/B 2.1 20:06:41 12° S 20:11:17 76° WSW 20:16:20 10° NNW
SL-24 R/B 4.2 20:10:06 28° SSE 20:12:24 70° ENE 20:17:16 10° N
Cosmos 1441 Rocket 4.1 20:10:38 10° SSW 20:14:20 49° WNW 20:18:03 10° N
ADEOS Rocket 3.4 20:08:10 10° NNE 20:15:18 70° ESE 20:22:58 10° S
Cosmos 1959 Rocket 4.4 20:09:18 10° N 20:15:24 63° ENE 20:19:02 25° SSE
Cosmos 2237 Rocket 2.2 20:11:50 10° NNW 20:17:35 86° WSW 20:20:51 27° SSE
ATLAS 2AS CENTAUR R/B 3.6 20:11:40 10° NW 20:19:01 50° WSW 20:24:53 14° S
Terra 3.6 20:18:42 16° ENE 20:19:07 16° NE 20:21:58 10° NNE
Cosmos 676 Rocket 4.0 20:16:39 10° NNW 20:21:56 64° ENE 20:23:54 37° SE
Meteor 2-17 Rocket 4.4 20:15:51 10° N 20:21:59 89° W 20:26:43 18° S
Cosmos 1602 Rocket 4.3 20:18:01 10° N 20:22:01 33° ENE 20:22:09 33° ENE
MetOp-A 4.1 20:18:46 23° SSE 20:22:12 87° ENE 20:27:36 10° NNW
In-Cosmos 22 4.2 20:17:43 10° NNW 20:23:04 79° W 20:27:03 19° S
SJ-6B 4.4 20:19:33 10° SSW 20:23:22 35° W 20:27:10 10° NNW
Cosmos 1980 3.8 20:20:31 10° NNW 20:26:11 72° WSW 20:29:21 27° SSE
Cosmos 1707 4.4 20:28:10 10° NNW 20:31:42 33° W 20:35:14 10° SSW
Cosmos 1674 2.6 20:28:14 10° N 20:31:52 61° ENE 20:31:52 61° ENE
Okean 1-7 Rocket 4.1 20:31:11 10° NNW 20:35:33 58° W 20:38:08 23° SSW
Cosmos 389 Rocket 3.8 20:33:47 10° NNW 20:36:59 37° W 20:38:21 26° SW
Cosmos 1892 Rocket 4.1 20:33:13 10° NNW 20:37:37 57° W 20:40:05 24° SSW
Cosmos 1190 Rocket 4.3 20:34:00 10° NNW 20:39:15 63° WSW 20:41:48 30° S
KORONAS-FOTON 3.8 20:39:59 10° N 20:43:30 68° NE 20:43:30 68° NE
SL-16 R/B 2.2 20:40:22 10° NNW 20:46:03 68° ENE 20:47:27 50° ESE
Meteor 1-4 Rocket 3.7 20:44:27 10° NNW 20:47:49 39° W 20:48:40 33° SW
CZ-2C R/B 3.4 20:45:09 27° S 20:47:59 63° WSW 20:53:27 10° NNW
ERBS 3.1 20:46:27 10° NW 20:49:15 48° NNW 20:49:15 48° NNW
Cosmos 1850 Rocket 4.2 20:48:36 10° NNW 20:53:40 50° ENE 20:54:06 48° ENE
Cosmos 1766 3.8 20:54:40 51° NNE 20:54:40 51° NNE 20:57:42 10° NNE
Cosmos 2219 Rocket 4.3 20:52:48 10° NW 20:56:50 21° W 21:00:52 10° SSW
DMSP B5D2-2 4.0 20:54:20 10° NNE 20:59:40 84° ESE 21:01:29 43° S
Cosmos 2082 4.4 21:05:13 39° ENE 21:05:13 39° ENE 21:09:08 10° NE
Cosmos 1934 Rocket 4.5 21:00:23 10° N 21:06:07 40° ENE 21:06:21 40° ENE
Cosmos 2056 Rocket 3.6 21:02:47 10° SSW 21:08:14 78° WNW 21:13:41 10° NNE
Cosmos 2181 Rocket 4.5 21:03:44 10° SSW 21:09:53 59° WNW 21:16:11 10° N
SPOT 1/Viking Rocket 3.5 21:09:51 67° E 21:10:01 67° ENE 21:15:10 10° N
SPOT 5 3.3 21:11:43 49° NE 21:11:43 49° NE 21:16:02 10° N
RESURS DK-1 3.4 21:10:06 10° NNW 21:13:13 40° NNE 21:13:13 40° NNE
CZ-2C R/B 2.6 21:09:01 10° NNE 21:14:34 72° ESE 21:14:46 71° ESE
Cosmos 1437 Rocket 3.8 21:12:58 10° NNW 21:16:21 40° W 21:16:21 40° W
USA 245 4.5 21:17:41 53° S 21:19:18 79° WSW 21:25:17 10° NNW
Cosmos 2219 3.7 21:14:46 10° SW 21:20:27 60° NW 21:26:09 10° NNE
Cosmos 1624 Rocket 4.4 21:15:41 10° SW 21:20:50 61° WNW 21:26:00 10° NNE
BREEZE-M DEB (TANK) 4.1 21:16:03 10° WNW 21:20:57 75° SSW 21:24:37 42° SE
Meteor 2-12 Rocket 4.3 21:15:12 10° N 21:21:19 72° ENE 21:21:47 68° ESE
Cosmos 1741 Rocket 3.9 21:16:01 10° NNW 21:21:22 77° ENE 21:21:22 77° ENE
CZ-4C R/B 4.2 21:16:46 10° NW 21:22:08 29° N 21:27:43 12° ENE
Cosmos 1544 Rocket 4.4 21:21:37 40° WSW 21:22:38 49° WNW 21:27:00 10° N
Cosmos 2227 Rocket 2.1 21:20:30 35° SSW 21:23:01 86° WNW 21:28:45 10° NNE
Cosmos 1455 Rocket 4.3 21:21:47 26° WSW 21:23:42 40° WNW 21:27:56 10° N
Landsat 7 3.9 21:25:14 74° NNW 21:25:14 74° NNW 21:29:35 10° NNW
Nadezhda 3 Rocket 3.8 21:25:13 67° E 21:25:19 67° E 21:31:28 10° NNE
CARTOSAT-1 4.5 21:29:05 43° N 21:29:05 43° N 21:32:07 10° N
Cosmos 2297 Rocket 2.4 21:30:18 20° SW 21:34:21 71° WNW 21:40:02 10° NNE
Resurs 01 Rocket 3.8 21:33:32 17° WSW 21:35:12 21° W 21:38:34 10° NW
Cosmos 1626 4.1 21:35:44 10° NNW 21:37:31 27° NNW 21:37:31 27° NNW
Cosmos 1605 Rocket 4.4 21:33:44 10° N 21:39:37 48° ENE 21:39:37 48° ENE
ERS-1 Rocket 3.1 21:40:25 69° WNW 21:40:25 69° WNW 21:45:03 10° NNW
Cosmos 1821 Rocket 3.9 21:37:06 10° NNW 21:43:19 80° W 21:43:45 75° SW
USA 234 3.4 21:42:11 53° ENE 21:43:39 68° NNE 21:50:09 10° WNW
Cosmos 1535 Rocket 4.4 21:41:07 10° N 21:47:31 78° ENE 21:47:31 78° ENE
Cosmos 1943 3.7 21:45:57 10° NNW 21:51:01 51° NNE 21:51:01 51° NNE
Terra 2.7 21:57:36 47° NNW 21:57:36 47° NNW 22:01:00 10° NNW
Cosmos 2237 Rocket 4.4 21:57:21 10° WNW 22:00:49 17° W 22:02:41 14° WSW
Cosmos 1452 Rocket 4.3 22:04:23 48° N 22:04:23 48° N 22:08:16 10° NNE
Cosmos 1603 4.3 22:19:21 10° NNW 22:23:41 53° NW 22:23:41 53° NW
SL-16 R/B 3.9 22:25:13 10° NW 22:29:20 24° W 22:29:20 24° W
Cosmos 2227 Rocket 4.3 23:03:28 10° W 23:07:55 23° NW 23:12:25 10° NNE
Mayak 1.6 23:04:23 10° N 23:05:03 14° N 23:05:03 14° N
CZ-4C R/B 3.4 23:05:43 10° NW 23:12:14 49° NNE 23:12:50 48° NE
Cosmos 2297 Rocket 4.5 23:15:20 10° W 23:19:27 20° NW 23:23:35 10° NNE
USA 234 4.3 23:29:32 35° WNW 23:29:32 35° WNW 23:33:16 10° WNW
Cosmos 2263 Rocket 3.6 23:39:46 34° NNE 23:39:46 34° NNE 23:42:56 10° NNE
Cosmos 1833 Rocket 4.4 23:44:18 10° NNW 23:48:44 27° NE 23:48:44 27° NE
